Погода Агинское

Погода Агинское : погода сейчас, прогноз погоды и архив. Всё, что Вы хотите узнать о погоде Агинское!

Хотите узнать прогноз погоды Агинское? Тогда Вам сюда: Погода Агинское

Поиск расширенной информации на нашем сайте:

Другие новости

Новости СМИ2

Главная страница сайта

Новости сайта

03.07.2017

Напоминаем, что на нашем специализированном сайте Метеоцентр.Азия вы можете получить высокодетализированные автоматические прогнозы погоды по пунктам России, СНГ и мира в авиационном формате (включающие направление и скорость ветра, видимость, явления погоды, количество и форму облачности, нижнюю и верхнюю границу облачности).


Погода Агинское - сегодня

Время (UTC), дата Ветер
(°,м/с) 
Видим.   Явления Облачность Т
(°С)
Тd
(°С)
f(%) Тe
(°С)
Pmin
(гПа)
dP
(гПа)
Po
(мм)
O2
(г/м3)
Тmin Tmax R s Состояние
почвы
21 16.05.18 220 (ЮЗ) 20000 м    ясно 
+4.1 -3.1 59 +3  1007.6  -2.5  725  288           
00 17.05.18 230 (ЮЗ) 20000 м    8/0 верхняя 
[Cs]
+7.7 -2.2 49 +9  1004.7  -2.3  723  284  +0.9         
12 17.05.18 290 (З) 4000 м  слаб. дождь{ливн. осадки}  10/10 1170 м 
[Sc]
+5 +3.4 89 +5  1007.7  0.3  725  286    +15.9     
21 17.05.18 320 (СЗ) 20000 м    10/10 1170 м 
[Sc]
-0.2 -4.5 73 1014.7  1.3  730  295           
00 18.05.18 060 (СВ) 4000 м  слаб. ливневой снег  9/9 870 м кучево-дожд. 
[Cb cap]
-0.6 -2.9 84 1016.4  1.5  731  295  -1.3    <0.5  равномерный
мокрый или
старый снег
100% 
09 18.05.18 300 (СЗ) 20000 м    10/10 900 м кучево-дожд. 
[Cb cap]
+5.8 -5.3 45 +5  1014.1  -0.6  730  289           
12 18.05.18 340 (С) 20000 м    10/10 1170 м 
[Sc]
+3.6 -3.6 59 +2  1015.5  731  291    +6.2  0.0     
15 18.05.18 тихо ()   20000 м    10/10 870 м кучево-дожд. 
[Cb cap]
+0.8 -2.8 77 +1  1016.9  731  294           
18 18.05.18 140 (ЮВ) 20000 м    10/10 900 м кучево-дожд. 
[Cb cap]
-0.4 -1.4 93 1016.7  -0.4  731  295           
00 19.05.18 140 (ЮВ) 20000 м  {туман}  9/0 верхняя 
[Ci fib]
-0.6 -1.1 96 -1  1012.5  -2  728  294  -3.8         
03 19.05.18 130 (ЮВ) 20000 м    9/0 верхняя 
[Cs]
+8.4 -2.5 46 +8  1008.1  -3  726  284           
06 19.05.18 170 (Ю) 20000 м    10/5 1000 м средняя 
[Cu Sc|As op]
+13 -5.1 28 +13  1004.8  -2.6  724  279           
09 19.05.18 010 (С) 2{10}  20000 м    9/6 600 м кучево-дожд., верхняя 
[Cb cap|Cs]
+13.4 -5.1 27 +14  1002.7  -1.9  723  278           
12 19.05.18 270 (З) 1{18}  20000 м  {ливн. осадки}  10/10 900 м кучево-дожд. 
[Cb cap]
+5.6 -1.5 60 +6  1009.4  5.4  727  287    +15     
18 19.05.18 270 (З) 20000 м  {ливн. осадки}  ясно 
+2.7 -4.5 59 +1  1014.3  1.1  730  292           
21 19.05.18 270 (З) 3{10}  20000 м    4/4 2000 м средняя 
[Ac lent]
+1.3 -4.9 63 1016.4  1.9  731  294           
00 20.05.18 270 (З) 4000 м  слаб. ливневой снег  10/10 870 м кучево-дожд. 
[Cb cap]
+2.5 -4.9 58 +1  1018  1.7  732  293  +1    0.0     
12 20.05.18 310 (СЗ) 3{14}  20000 м  {ливн. осадки}  10/10 870 м кучево-дожд. 
[Cb cap]
+4.1 -3.7 57 +3  1023  1.1  736  293    +7.7  0.0     
00 21.05.18 280 (З) 20000 м    10/10 900 м кучево-дожд. 
[Cb cap]
+4.1 -3.1 59 +3  1024.1  0.5  737  293  +2.8         
03 21.05.18 290 (З) 20000 м    9/5 1000 м верхняя 
[Cu med, cong|Ci sp]
+7.8 -3.9 43 +7  1022.9  -0.7  737  289           
06 21.05.18 260 (З) 4{10}  20000 м    9/6 600 м кучево-дожд., верхняя 
[Cb cap|Ci fib]
+11.3 -7.2 27 +11  1020.5  -1.8  735  285           
09 21.05.18 260 (З) 20000 м    9/4 1000 м верхняя 
[Cu med, cong|Ci sp]
+13.7 -7.9 22 +13  1017.3  -2.8  733  282           
12 21.05.18 260 (З) 3{10}  20000 м    10/10 900 м кучево-дожд. 
[Cb cap]
+13 -5.4 27 +13  1015.7  -1.6  732  282    +14.8       
00 22.05.18 210 (ЮЗ) 4000 м  слаб. ливневой дождь  10/10 900 м кучево-дожд. 
[Cb cap]
+8.7 +6.4 85 +9  1005.2  -3  724  282  +6.7       
12 22.05.18 250 (З) 4000 м  слаб. ливневой дождь  10/10 870 м кучево-дожд. 
[Cb cap]
+14.6 +10.5 76 +18  999.5  -1.2  720  274    +17.3     
Время (UTC), дата Ветер
(°,м/с) 
Видим.   Явления Облачность Т
(°С)
Тd
(°С)
f(%) Тe
(°С)
Pmin
(гПа)
dP
(гПа)
Po
(мм)
O2
(г/м3)
Тmin Tmax R s Состояние
почвы

Для получения пояснительной информации подведите курсор к названию столбца.

ПОГОДА Агинское - архив

Всё, что Вы хотите узнать о погоде Агинское - удобно и подробно!

Выберите нужную дату (начиная с 1 января 2015* года) и нажмите кнопку "Найти".
Будут отображены архивные сводки погоды по пункту Агинское, начиная с указанной даты.


Отображать данные в формате CSV (для использования в таблицах Excel)


Внимание! Наш архив погоды предназначен исключительно для личного некоммерческого использования в познавательных целях. Если Вам необходимы официальные справки о состоянии погоды (для производственных, юридических, коммерческих и т.п. целей), обращайтесь в органы Росгидромета.

*Примечание: данная дата относится к архиву по метеостанциям СССР (Россия, СНГ, Балтия).
Архив по метеостанциям Зарубежной Европы и Азии (кроме Китая) хранится 10 дней, по другим регионам земного шара (Китай, Африка, Америка, Австралия, Океания) - 1 день.

Агинское - район местоположения метеостанции


Название, широта, долгота, высота метеостанции:
Агинское 55.2°ш. 94.9°д. 337 м над ур. моря [Российская Федерация]

Дополнительная информация

В oтличие oт бoльшинства пoгoдных сайтoв мы публикуем пoдрoбную метеoинфoрмацию в детальнoм прoфессиoнальнoм фoрмате.

Характеристики температуры и влажнoсти вoздуха измеряются на высoте 2 м в тени вдали oт зданий и деревьев.
Скoрoсть ветра измеряется на высoте 10 м (на урoвне рoста челoвека скoрoсть ветра ниже в 1.5-2 раза). Если метеoстанция нахoдится в гoрoде или в лесу, тo скoрoсть ветра занижена на 2-4 м/с пo сравнению с oткрытым местoм. Скoрoсть ветра над акватoриями крупных рек и oзёр, а также на вершинах хoлмoв на 2-5 м/с выше, чем в oбычных услoвиях.
Атмoсфернoе давление в разных тoчках местнoсти мoжет значительнo oтличаться oт давления на метеoстанции, в зависимoсти oт услoвий рельефа (при пoдъёме на 10 м давление пoнижается примернo на 1 мм рт.ст.).